Regional Weather Roundup
Issued by NWS Northern Indiana

Home | Current Version | Previous Version | Graphics & Text | Print | Product List | Glossary On
Versions: 1 2 3 4 5 6 7 8 9 10 11 12 13 14 15 16 17 18 19 20 21 22 23 24 25 26 27 28 29 30 31 32 33 34 35 36 37 38 39 40 41 42 43 44 45 46 47 48 49 50
000
ASUS43 KIWX 230810
RWRIWX

KIWX WEATHER ROUNDUP
NATIONAL WEATHER SERVICE NORTHERN INDIANA
400 AM EDT SAT MAY 23 2015

NOTE: "FAIR" INDICATES FEW OR NO CLOUDS BELOW 12,000 FEET WITH NO
SIGNIFICANT WEATHER AND/OR OBSTRUCTIONS TO VISIBILITY.

* THESE STATIONS ARE NOT UNDER NWS QUALITY CONTROL. THEY ALSO MAY NOT
  REPORT WEATHER SUCH AS PRECIPITATION OR FOG.

INZ001>027-230900-
NORTHERN INDIANA

CITY           SKY/WX    TMP DP  RH WIND       PRES   REMARKS
GARY*          PTCLDY    47  42  81 SE3       30.30S
VALPARAISO     PTCLDY    49  37  63 E5        30.31S
MICHIGAN CITY* PTCLDY    45  36  70 CALM      30.31S
LAPORTE*       PTCLDY    47  39  73 CALM      30.32R
KNOX*          PTCLDY    46  36  66 CALM      30.30S
SOUTH BEND     CLEAR     47  37  68 CALM      30.33R
GOSHEN         CLEAR     43  37  79 CALM      30.32S
MONTICELLO*    CLOUDY    52  38  59 CALM      30.30S
LOGANSPORT*    MOCLDY    46  36  66 E5        30.32R
ROCHESTER*     PTCLDY    50  37  62 CALM      30.32S
WARSAW*        CLEAR     45  37  76 CALM      30.32R
ANGOLA*        CLEAR     43  37  81 CALM      30.32R
FORT WAYNE     PTCLDY    47  39  74 CALM      30.33R
HUNTINGTON*    PTCLDY    45  38  75 CALM      30.32R
PERU/GRISSOM   MOCLDY    49  38  65 E6        30.30R
MARION*        PTCLDY    51  37  59 CALM      30.33R

$$
INZ028>050-230900-
CENTRAL INDIANA

CITY           SKY/WX    TMP DP  RH WIND       PRES   REMARKS
LAFAYETTE      CLOUDY    55  39  54 E9        30.29S
KOKOMO*        PTCLDY    52  39  62 E3        30.32R
MUNCIE*        PTCLDY    51  40  65 E5        30.31S
INDIANAPOLIS   CLOUDY    59  42  53 NE8       30.28R

$$
MIZ043>046-050>051-056>058-064>065-071>073-077>080-230900-
SOUTHWEST LOWER MICHIGAN

CITY           SKY/WX    TMP DP  RH WIND       PRES   REMARKS
BATTLE CREEK   MOCLDY    50  33  52 SE6       30.32R
BENTON HARBOR  CLEAR     42  36  79 SE6       30.30S
COLDWATER*     PTCLDY    45  35  67 SE5       30.32R
HILLSDALE*     MOCLDY    44  41  89 CALM      30.33R
HOLLAND        MOCLDY    45  35  68 SE5       30.31R
GRAND RAPIDS   PTCLDY    42  34  73 SE5       30.31R
KALAMAZOO      PTCLDY    45  33  63 CALM      30.32R
STURGIS*       PTCLDY    45  34  65 CALM      30.32R
THREE RIVERS*  FAIR      41  36  81 CALM      30.32S

$$
OHZ001>008-015>018-024>025-230900-
NORTHWEST OHIO

CITY           SKY/WX    TMP DP  RH WIND       PRES   REMARKS
WAUSEON*       FAIR      45  39  81 NE7       30.33R
DEFIANCE       MOCLDY    47  39  74 CALM      30.32R
FINDLAY        MOCLDY    50  37  61 SE3       30.31R
TOLEDO EXPRESS MOCLDY    47  41  80 NE3       30.33R
TOLEDO METCALF MOCLDY    51  45  79 NE3       30.34R
LIMA           MOCLDY    48  36  63 E3        30.32R

$$
AND FOR LAKE MICHIGAN COASTAL AND OPEN LAKE BUOY OBSERVATIONS

STATION/POSITION TEMP    WIND        PRES    VSBY  WAVE
                 AIR SEA DIR/SP/G                  HT/PER
                 (F)     (DEG/KT/KT) (MB)    (MI)  (FT/S)
CALUMET HARBOR    54     180/  2/  2   N/A
MICHIGAN CITY     53     120/  9/ 11   N/A
BURNS HARBOR      60     120/ 12/ 16 1026.1F
SAINT JOSEPH      49      CALM  /  4 1026.8R
SOUTH LAKE BUOY   44 38  190/  6/  6 1026.7R         0
4 MI NW BRIDGMAN  55 53  170/  8/ 10   N/A           1
MICHIGAN CITY     53 51  130/  4/  6   N/A           1/ 3

$$
&&



USA.gov is the U.S. government's official web portal to all federal, state and local government web resources and services.